Flag for Germany Weather past 2 weeks in Eberswalde, Brandenburg, Germany

Now
64 °F

Broken clouds.


Feels Like: 64 °F
Forecast: 51 / 57 °F
Wind: 9 mph from Northwest

Location: Berlin-Tegel

Current Time: Sep 21, 2014 at 5:09:57 PM

Latest Report: Sep 21, 2014 at 4:20 PM


Visibility: N/A

Pressure: 29.83 "Hg

Humidity: 73%

Dew point: 55 °F

Location of EberswaldeLocation

Historic Weather in Eberswalde — Graph

°F

Eberswalde temperature yesterday

Maximum temperature yesterday: 66 °F (at 1:20 PM)
Minimum temperature yesterday: 55 °F (at 4:50 AM)
Average temperature yesterday: 61 °F

Past Weeks' High & Low Weather Summary

 TemperatureHumidityPressure
High81 °F (Sep 6, 3:20 PM)100% (Sep 21, 3:20 AM)30.15 "Hg (Sep 21, 3:20 AM)
Low52 °F (Sep 9, 3:50 AM)34% (Sep 6, 3:20 PM)29.83 "Hg (Sep 21, 3:50 PM)
Average64 °F74%30.02 "Hg
* Reported Sep 6 3:20 PM — Sep 21 3:50 PM, Eberswalde, Weather by CustomWeather, © 2014

Note: Actual official high and low records may vary slightly from our data, if they occured in-between our weather recording intervals... More about our weather records

Advertising

Eberswalde weather history for previous 24 hours

 ConditionsComfort  
Time TempWeatherWind HumidityBarometerVisibility
3:50 PM
Sep 21
64 °FBroken clouds.7 mph78%29.83 "HgN/A
3:20 PM64 °FBroken clouds.5 mph83%29.86 "HgN/A
2:50 PM63 °FBroken clouds.6 mph88%29.86 "HgN/A
2:20 PM61 °FPartly sunny.6 mph88%29.86 "HgN/A
1:50 PM61 °FDrizzle. Partly sunny.7 mph88%29.86 "Hg5 mi
1:20 PM63 °FPartly sunny.7 mph83%29.89 "HgN/A
12:50 PM61 °FBroken clouds.8 mph94%29.89 "Hg6 mi
12:20 PM61 °FBroken clouds.7 mph88%29.86 "Hg5 mi
11:20 AM61 °FLight rain. Partly sunny.7 mph94%29.86 "Hg4 mi
10:50 AM61 °FFog.6 mph94%29.86 "Hg3 mi
10:20 AM61 °FDrizzle. Fog.9 mph94%29.89 "Hg2 mi
9:50 AM61 °FFog.8 mph100%29.86 "Hg1 mi
9:20 AM61 °FFog.6 mph94%29.86 "Hg1 mi
8:50 AM59 °FFog.5 mph100%29.86 "Hg1 mi
8:20 AM59 °FFog.6 mph100%29.86 "Hg1 mi
7:50 AM59 °FFog.5 mph100%29.86 "Hg0 mi
7:20 AM59 °FFog.6 mph94%29.86 "Hg0 mi
6:50 AM59 °FFog.7 mph94%29.86 "Hg0 mi
6:20 AM59 °FFog.7 mph94%29.86 "Hg1 mi
5:50 AM59 °FFog.7 mph94%29.86 "Hg0 mi
5:20 AM61 °FFog.5 mph94%29.86 "Hg0 mi
4:50 AM59 °FFog.2 mph100%29.86 "Hg0 mi
4:20 AM61 °FFog.3 mph94%29.86 "Hg0 mi
3:50 AM61 °FFog.2 mph94%29.86 "Hg1 mi
3:20 AM61 °FFog.3 mph100%29.86 "Hg3 mi
2:50 AM63 °FFog.3 mph94%29.86 "Hg3 mi
2:20 AM63 °FFog.5 mph94%29.86 "Hg3 mi
1:50 AM63 °FFog.3 mph94%29.86 "Hg3 mi
1:20 AM63 °FPassing clouds.2 mph94%29.89 "HgN/A
12:20 AM64 °FThunderstorms. Passing clouds.6 mph88%29.89 "Hg2 mi
11:50 PM
Sep 20
63 °FPassing clouds.3 mph94%29.89 "HgN/A
11:20 PM63 °FPassing clouds.5 mph94%29.89 "HgN/A
10:20 PM63 °FFog.2 mph94%29.89 "HgN/A
9:50 PM63 °FFog.1 mph94%29.89 "HgN/A
9:20 PM64 °FClear.2 mph88%29.89 "Hg10 mi
8:50 PM66 °FPartly cloudy.2 mph83%29.89 "HgN/A
8:20 PM66 °FPassing clouds.2 mph83%29.89 "HgN/A
7:50 PM66 °FPartly sunny.3 mph83%29.89 "HgN/A
Weather by CustomWeather, © 2014

See weather overviewHow to use our weather pages